Вернуться в каталог

FENGYUN 1C DEB

АктивенSSO
NORAD 30768·DEBRIS·🇨🇳 China

Запущен May 10, 1999 с Taiyuan Satellite Launch Center

Loading…

Ближайшие Пролёты (ближайшие 24 часа)

TLE

СвежийSource: Space-Track

Эпоха: Sep 14, 2026, 12:53 UTC

1 30768U 99025AUE 26257.53743936  .00003907  00000-0  98652-3 0  9993
2 30768  98.6164 358.3792 0022406 342.0679 151.4675 14.51475800 18689

Отслеживайте FENGYUN 1C DEB в реальном времени с AllMySat

Download on the App Store